Temp
30 29 29 28 28 27 28 28 27 27 27 27 27 27 27 26 26 26 26 26 25 25 25 26 26 25 25 25 26 27 27 27 28 28 26 25 24 24 23 23 23 23 22
31 30 29 28 29 29 28 28 28 28 27 27 27 26 27 27 26 26 26 26 25 25 24 24 25 25 25 25 25 25 26 26 26 26 25 24 23 24 23 23 22 23 23
30 31 30 29 29 29 28 28 29 28 27 27 27 27 26 26 26 26 26 25 25 24 24 24 24 25 25 25 24 23 25 26 26 26 26 25 25 23 22 22 21 21 23
30 31 31 29 29 29 29 28 28 28 27 27 26 26 26 26 26 26 25 24 25 25 25 24 24 25 25 24 24 24 24 24 25 25 25 26 26 25 22 24 22 22 22
28 31 30 29 28 28 28 28 28 27 27 26 26 26 27 27 27 25 26 26 25 25 25 25 25 24 23 23 23 24 23 23 24 25 25 25 27 23 24 24 23 23 22
28 30 29 28 27 27 27 27 27 26 27 26 26 26 26 25 26 26 25 26 25 25 25 23 23 23 23 22 22 22 21 21 23 24 25 24 24 23 23 22 21 22 22
28 29 28 27 27 27 27 26 26 26 27 27 26 26 26 26 26 25 25 25 25 23 22 21 21 22 22 21 22 22 22 22 21 20 21 22 22 22 21 20 20 21 21
27 28 27 27 26 26 26 26 26 26 26 26 26 26 25 25 25 25 25 24 23 22 23 21 20 20 20 20 20 22 21 21 21 20 20 20 20 21 19 19 19 19 20
27 27 27 26 27 27 26 26 26 26 26 25 26 26 25 24 25 25 25 26 24 24 22 21 21 20 21 20 19 22 22 22 21 21 21 20 20 20 19 19 20 19 20
27 27 26 26 27 27 27 26 26 26 26 27 26 25 23 23 24 24 25 26 25 25 24 22 21 20 20 20 19 21 21 21 21 21 22 21 21 20 20 19 19 19 19
28 27 27 27 27 27 26 26 26 26 27 27 25 23 23 20 23 23 24 24 24 25 25 25 19 19 19 17 17 18 18 18 20 20 22 23 23 22 21 20 19 19 19
28 27 27 27 27 26 26 26 26 26 26 25 24 23 21 20 22 22 22 22 22 22 23 22 19 18 17 17 18 17 17 18 20 20 21 22 21 21 21 20 19 19 19
28 27 27 27 27 27 26 26 26 25 26 25 24 26 23 21 20 21 21 21 21 22 20 18 17 17 18 16 16 16 16 17 19 20 20 20 20 20 20 21 20 20 19
28 27 27 27 27 26 26 26 28 27 28 28 27 27 26 24 23 21 21 21 20 20 19 18 18 18 18 17 17 16 15 15 16 16 17 17 17 17 19 19 19 19 20
27 27 27 27 27 26 23 25 28 25 26 29 29 28 26 25 21 21 21 21 21 19 19 21 20 19 19 18 18 17 15 15 15 16 16 16 17 17 17 18 18 18 19
27 27 28 27 28 24 22 18 20 22 25 26 26 25 24 23 22 20 20 19 19 19 20 21 20 20 19 18 17 16 15 14 14 14 15 15 15 16 15 17 17 17 17
26 27 26 28 28 26 25 22 20 19 22 23 23 23 22 22 20 20 19 18 18 19 21 20 19 18 18 17 16 15 15 13 13 13 14 14 14 15 15 16 16 15 16
23 23 25 26 25 25 25 24 23 22 22 18 20 21 20 19 19 18 18 18 18 20 20 20 19 18 16 15 15 15 15 15 14 14 14 15 15 15 15 15 15 15 15
23 23 24 23 24 25 25 24 24 23 22 19 14 16 16 17 17 17 17 16 22 21 20 19 19 18 16 16 16 15 15 15 14 15 16 15 15 16 16 16 16 15 14
22 22 21 21 22 24 24 23 24 24 23 20 19 18 15 14 16 17 18 20 21 20 19 19 18 17 16 16 15 16 16 15 15 15 15 15 15 15 15 15 15 15 15
20 18 20 23 24 24 23 23 24 24 24 22 23 21 18 19 21 21 20 19 20 19 18 18 17 17 16 16 15 15 13 14 14 14 14 14 14 14 14 15 15 15 15
22 22 22 25 24 24 25 26 26 26 25 24 24 19 18 18 22 20 20 19 18 18 17 16 17 17 17 16 14 14 14 14 14 12 13 13 13 14 14 14 14 14 15
25 24 25 26 26 26 26 27 26 25 25 25 23 20 18 20 21 20 19 19 18 17 16 16 16 17 15 14 14 14 13 12 10 10 11 11 12 12 12 13 13 13 14
26 26 25 27 27 27 26 26 25 25 25 24 22 20 19 21 20 19 18 18 17 16 16 15 15 15 13 14 14 13 10 9 8 9 8 9 10 11 11 12 13 13 13
27 26 26 27 26 26 26 26 25 25 24 23 22 20 20 20 20 19 18 17 16 16 15 15 14 13 12 12 11 9 9 8 8 8 7 7 9 10 12 12 12 12 13
28 27 26 27 27 25 25 25 25 24 23 23 22 21 20 19 19 18 17 16 15 15 15 14 13 12 11 11 9 9 9 8 7 7 7 6 9 11 11 11 11 12 12
Height
795 799 803 807 811 814 815 815 817 828 831 835 837 838 829 830 834 837 836 837 837 837 837 837 835 836 836 835 833 832 830 831 829 825 825 826 831 832 830 831 835 836 837
785 793 799 803 807 810 813 814 815 819 827 832 831 827 825 830 833 834 834 833 835 835 835 834 833 833 833 833 833 831 829 829 829 828 827 825 826 825 827 830 833 834 835
784 788 793 799 804 807 810 813 815 816 818 819 821 823 828 831 832 832 833 833 832 833 832 832 831 831 831 830 831 830 828 827 826 826 825 825 825 826 827 829 831 832 832
779 785 789 793 800 804 808 811 814 816 819 821 823 826 827 830 830 830 831 831 831 831 830 829 829 830 829 829 829 829 827 826 826 826 825 823 822 821 823 825 826 828 828
777 781 786 791 796 801 806 809 813 815 817 820 822 824 826 826 827 828 829 830 830 830 830 829 828 829 829 829 828 827 827 826 825 822 822 821 818 822 823 822 823 823 824
775 779 784 789 793 797 802 805 809 813 816 819 820 822 823 823 824 826 828 829 829 829 829 828 828 828 826 827 827 826 826 825 824 822 819 819 819 821 822 822 821 821 821
774 778 782 786 790 794 799 802 807 811 812 815 819 820 821 822 824 826 827 829 829 830 830 829 828 827 825 825 825 824 823 823 823 824 823 823 821 821 821 820 819 819 817
770 776 780 785 790 794 796 799 804 809 810 812 816 819 820 821 823 825 827 829 830 830 830 829 828 827 825 824 823 822 821 821 820 821 821 821 820 819 818 817 816 815 815
768 774 779 784 786 789 792 797 802 805 807 811 814 816 819 821 822 825 827 827 829 829 828 828 828 827 825 823 821 820 819 819 818 818 818 817 815 814 814 814 813 813 810
761 767 772 777 782 785 790 794 800 804 805 807 813 817 820 820 823 825 826 825 826 826 825 824 824 824 823 821 820 820 818 817 817 817 815 813 811 810 810 810 810 809 808
753 759 765 770 777 784 790 794 798 802 803 807 813 818 821 822 822 823 823 825 826 826 824 824 824 823 822 821 820 819 818 815 814 813 812 809 807 807 807 806 806 806 805
747 753 759 765 771 782 789 794 797 799 803 810 814 818 822 821 820 821 821 821 823 825 826 826 825 823 821 821 820 819 817 815 814 812 811 809 807 806 806 805 804 802 801
746 752 757 762 769 775 784 791 796 800 804 809 813 814 819 820 820 820 820 822 823 824 824 824 823 823 822 821 820 819 817 816 815 813 812 811 809 808 806 803 801 799 797
748 754 759 763 768 774 782 785 791 798 802 804 807 809 813 817 819 821 823 822 823 823 823 823 824 823 822 821 819 819 817 816 816 815 814 812 810 808 806 803 800 797 794
750 754 759 761 767 772 776 780 782 789 795 798 801 804 810 814 818 819 820 820 821 822 822 823 822 822 822 821 819 818 819 818 818 816 814 813 811 809 807 804 802 800 797
748 752 754 759 760 769 772 779 784 787 790 794 800 802 807 812 815 818 819 819 819 820 821 821 820 820 820 819 819 819 819 819 819 818 817 814 812 810 808 804 801 800 798
744 747 751 755 760 767 769 774 781 790 792 795 798 804 809 812 816 816 817 818 819 818 817 820 821 822 821 821 820 820 818 817 818 819 819 818 816 813 809 806 803 801 798
746 747 749 756 762 765 767 775 779 786 791 796 800 802 809 812 814 816 818 818 819 819 818 821 823 824 823 821 821 822 822 819 816 816 816 815 814 812 810 808 806 804 801
739 744 748 750 763 757 772 771 777 784 791 797 797 800 808 811 813 817 818 816 815 817 817 817 818 820 821 820 819 819 820 819 817 816 815 815 814 812 808 807 804 803 801
740 742 748 752 764 766 768 774 771 781 787 794 796 800 805 811 812 815 817 815 815 816 816 815 817 819 819 820 819 818 818 818 818 816 815 814 812 809 805 803 802 801 799
735 742 748 753 755 755 769 769 769 777 783 786 792 796 802 806 807 810 812 814 811 814 815 815 814 816 819 821 819 819 820 819 819 817 815 814 813 811 809 806 804 801 799
739 739 741 746 752 758 763 764 768 771 773 781 789 796 802 806 808 811 812 812 811 811 814 814 813 813 815 818 817 816 818 816 816 817 816 813 812 810 807 805 802 800 797
735 741 744 746 750 752 757 761 763 766 770 777 787 794 798 803 804 807 810 811 811 811 812 812 812 813 817 818 815 813 814 815 816 816 817 816 813 809 807 804 802 799 797
732 735 740 741 745 749 754 758 762 767 772 778 786 791 793 797 799 801 804 807 808 810 809 810 812 813 817 817 815 815 814 815 814 815 815 815 813 809 806 803 800 798 795
728 731 736 739 744 748 751 757 761 766 771 775 781 787 788 791 795 799 802 802 804 806 807 808 811 813 816 816 815 813 810 811 812 811 813 814 812 809 805 802 800 797 794
723 728 734 735 740 744 747 752 756 762 767 771 779 781 784 789 794 797 797 798 800 802 805 808 810 811 812 813 813 810 809 810 812 811 808 809 810 808 804 800 796 793 790
Wind_Speed
22 20 20 19 18 16 14 12 11 4 2 6 7 6 4 6 7 7 7 5 7 9 9 8 10 9 11 12 10 13 12 10 13 15 13 4 10 8 3 9 12 15 16
27 24 21 20 18 18 17 14 11 8 7 7 6 3 3 5 5 6 8 8 7 9 9 11 11 11 11 11 12 13 13 12 13 12 13 13 10 4 7 9 12 16 16
29 26 24 21 20 19 17 15 13 10 9 7 5 5 5 6 6 7 7 6 5 6 7 7 10 10 11 13 11 11 15 14 11 13 9 11 8 7 7 11 12 15 16
22 25 24 24 21 18 17 15 16 12 11 10 8 8 7 7 7 5 3 3 3 3 3 4 6 7 9 10 11 11 14 12 11 9 12 14 12 14 11 10 10 11 14
16 22 23 23 22 19 18 17 16 15 13 12 11 9 8 6 6 6 4 2 1 4 5 6 8 7 9 10 9 9 9 9 12 19 14 19 9 4 10 10 10 11 11
16 21 19 21 21 19 18 18 18 16 14 12 11 10 9 8 6 9 6 1 3 6 8 9 9 13 9 7 8 11 14 10 11 15 14 13 15 15 11 11 12 12 12
18 19 21 21 20 20 20 19 19 17 15 12 11 11 9 6 8 7 4 1 4 5 7 7 8 6 4 7 8 10 10 10 17 14 15 16 16 15 12 11 13 14 13
21 21 22 20 18 19 20 20 20 18 17 16 14 11 12 9 9 7 4 2 2 2 4 6 5 6 8 9 9 10 9 10 10 9 11 15 15 14 13 13 11 12 10
21 21 21 21 21 20 21 22 21 20 18 15 15 15 12 11 11 9 6 6 4 1 2 3 4 5 9 9 8 9 8 7 5 8 12 14 15 16 16 13 14 10 13
26 26 27 24 21 22 23 22 21 19 17 18 15 13 12 12 12 9 4 3 2 5 8 3 2 6 12 9 7 8 9 7 7 7 11 13 13 12 11 14 14 14 14
28 29 28 26 23 22 22 22 21 20 19 17 16 12 11 8 11 8 6 4 3 5 7 4 5 13 11 8 6 5 7 10 10 10 11 12 11 7 9 10 11 13 15
31 30 29 27 26 23 22 21 20 19 20 17 15 14 9 10 11 8 6 3 2 3 5 6 7 8 7 8 7 7 7 9 7 8 10 12 15 13 13 11 10 12 14
28 28 28 29 26 28 25 22 21 19 19 17 15 13 10 9 8 6 4 3 3 2 3 5 7 9 9 1 9 11 9 10 8 8 9 11 14 14 14 14 12 12 13
25 25 26 27 26 26 23 23 19 19 17 16 15 13 12 10 8 4 2 1 3 1 2 2 3 4 10 9 9 11 10 9 9 12 12 14 13 14 14 17 17 19 16
24 27 26 25 26 22 16 13 19 14 10 15 15 13 13 12 8 7 5 2 2 2 4 3 2 3 4 6 7 9 10 11 11 10 10 11 12 13 14 14 14 16 16
26 26 28 28 28 22 21 20 17 14 11 7 8 12 11 10 11 6 3 3 6 7 2 3 3 3 4 5 7 8 9 10 11 11 10 10 11 12 14 13 12 14 15
23 26 23 25 25 24 22 20 17 13 12 14 13 10 10 10 6 5 6 9 11 7 5 3 3 3 4 5 6 6 6 7 8 9 10 11 11 11 12 12 13 14 15
17 22 26 23 22 22 19 17 16 17 17 13 15 16 11 9 6 7 10 10 6 3 4 4 3 3 4 4 5 5 4 5 6 6 7 8 9 11 12 14 14 16 17
31 26 22 11 11 14 17 18 18 16 16 16 17 16 13 11 10 10 9 7 6 6 6 6 4 3 3 3 3 3 3 5 5 7 8 9 10 12 12 13 13 13 14
27 28 26 25 27 24 21 22 19 19 18 17 16 16 15 15 12 11 10 9 7 7 6 6 5 4 3 1 1 1 2 5 7 7 8 9 10 10 11 12 13 15 15
24 21 32 23 20 21 19 20 21 20 20 17 17 18 20 16 13 13 12 10 10 8 7 5 6 4 3 1 1 3 4 5 6 7 9 10 11 12 13 13 15 15 15
17 19 23 14 18 19 22 21 21 20 18 17 16 18 19 12 11 11 11 10 9 7 8 7 6 5 4 2 2 2 2 4 6 8 9 10 11 12 13 14 14 15 15
21 22 22 22 22 23 20 20 18 19 20 20 19 15 20 16 14 13 12 11 9 9 8 6 6 5 3 2 2 3 2 3 6 8 10 12 12 12 14 14 15 15 17
21 26 29 26 21 19 20 21 21 21 22 21 19 19 21 19 16 16 15 13 11 10 8 7 6 5 4 3 3 4 4 5 7 7 10 11 13 13 13 14 15 16 19
23 25 25 24 24 25 24 23 23 23 23 22 22 21 20 19 18 17 16 14 12 11 9 8 7 6 5 3 4 3 6 8 8 10 9 12 13 13 13 15 16 18 20
24 23 25 27 25 25 24 25 24 24 24 22 22 21 19 19 18 18 17 15 13 12 10 8 8 7 5 4 6 3 9 8 10 10 12 9 10 13 14 15 16 18 19
Wind_Direction
193 192 193 201 202 208 216 221 237 208 125 179 199 208 193 203 212 225 261 266 234 245 261 268 252 262 276 284 286 280 289 291 271 283 317 284 171 241 167 206 223 227 245
188 184 193 195 201 202 215 212 220 225 196 191 204 195 196 214 223 233 254 280 269 270 267 268 270 264 262 261 272 282 278 283 297 302 293 305 277 260 230 225 234 238 239
196 186 185 192 197 205 206 213 220 211 218 205 221 219 228 226 225 248 258 274 288 283 281 271 272 268 278 278 277 271 258 255 255 257 282 266 248 241 244 240 243 254 254
186 201 190 184 194 198 204 203 209 206 204 210 211 221 214 220 226 248 252 244 261 264 296 298 289 284 282 279 274 274 276 279 271 261 262 286 250 223 204 232 229 245 254
191 193 188 184 188 191 201 203 205 201 200 206 203 203 206 219 208 163 162 174 283 316 304 292 279 266 273 266 272 289 298 264 256 245 232 255 298 145 221 263 263 263 256
185 194 185 181 181 187 195 197 199 194 192 194 200 193 195 125 147 169 154 181 311 310 309 311 301 278 269 282 286 273 268 274 278 289 297 305 309 308 291 279 273 261 268
180 184 182 180 182 189 190 188 194 194 184 186 183 182 161 153 161 172 169 48 333 339 320 302 288 343 326 310 286 288 294 281 264 267 281 281 293 296 298 283 279 261 254
181 183 178 178 180 186 188 186 189 190 177 174 177 173 155 171 171 158 122 124 95 19 18 18 13 350 324 301 305 289 271 263 266 261 262 272 279 285 282 280 278 272 255
180 182 181 184 185 183 188 187 185 181 172 165 174 165 161 166 157 153 173 223 65 137 127 72 30 9 340 337 328 309 311 299 273 264 270 281 282 280 270 263 266 250 248
179 178 179 185 188 183 186 182 185 178 168 168 165 167 168 154 160 162 159 347 42 317 201 195 293 332 332 324 329 322 304 320 324 301 293 297 298 290 295 260 261 259 261
178 175 177 178 182 184 182 180 177 179 162 157 157 152 148 147 147 151 130 88 30 323 323 317 33 338 340 9 16 333 317 306 304 292 292 294 283 282 284 274 257 257 261
172 172 170 172 174 176 180 176 175 164 150 151 155 155 152 155 154 148 135 117 62 340 325 343 339 5 24 41 24 4 349 326 308 323 326 327 351 357 338 313 288 273 268
170 170 166 168 174 167 167 166 164 160 166 170 171 167 160 164 154 145 133 71 35 79 48 44 56 43 22 68 17 22 17 12 356 348 338 332 331 320 319 315 322 305 296
169 165 168 170 160 160 166 165 168 180 179 181 182 181 170 174 169 162 144 7 9 328 294 118 60 91 58 55 52 29 30 19 4 3 348 346 341 345 332 336 341 335 319
170 169 169 161 161 154 142 166 164 158 190 196 191 187 177 184 164 174 174 170 196 221 174 158 90 65 52 45 46 43 35 31 25 14 7 357 350 342 337 330 332 329 330
172 174 175 165 159 151 137 105 114 129 156 151 152 162 149 158 164 164 140 133 141 144 157 159 122 82 64 51 46 46 42 33 23 13 6 360 357 352 347 347 343 337 335
181 175 171 178 159 164 154 143 130 116 142 146 146 138 161 164 155 125 103 108 128 143 166 140 113 92 72 61 63 52 45 40 29 16 4 0 355 353 354 353 351 350 343
190 166 160 148 154 162 158 158 159 163 153 137 148 156 163 157 136 125 136 144 159 141 137 133 124 98 80 81 62 45 15 26 27 11 357 348 347 346 348 349 347 348 342
172 167 178 184 204 158 180 160 170 167 162 155 152 152 158 145 138 148 178 223 183 169 155 152 142 140 109 113 88 64 7 6 9 356 358 351 346 344 342 343 337 336 335
172 181 187 177 187 175 172 178 168 179 175 172 168 165 163 160 164 187 205 196 180 178 169 155 149 139 122 118 97 38 12 11 7 356 356 351 346 338 338 338 338 336 334
186 189 190 193 174 163 189 187 174 186 179 172 183 179 183 185 194 194 191 188 180 179 179 183 157 156 160 182 49 32 22 15 5 355 351 345 341 337 337 339 335 331 328
212 202 188 206 177 186 201 202 193 185 176 182 174 167 186 201 205 197 198 191 187 179 183 183 173 171 171 189 150 96 23 21 14 353 345 342 338 335 336 333 330 329 327
183 184 195 204 194 200 193 199 188 189 188 188 184 182 184 206 200 195 198 197 189 185 183 183 184 174 168 181 123 92 60 40 5 353 343 337 332 329 327 328 329 326 328
195 183 194 209 199 195 198 200 196 199 191 189 183 187 189 201 196 195 194 192 191 190 183 179 178 166 172 165 116 78 88 5 8 346 333 326 322 324 324 322 323 326 325
202 189 198 205 200 200 196 200 195 194 193 190 189 195 195 194 196 190 193 189 187 189 183 180 177 168 162 146 128 96 15 347 338 334 336 321 316 317 321 323 326 324 323
216 197 204 205 200 196 193 195 195 194 195 195 198 195 194 195 196 192 189 187 186 187 183 180 183 170 164 156 168 311 336 332 333 337 336 324 319 320 323 321 320 320 319